Location: Oberkirch
(48.5323°N, 8.0787°E)
Time: 15:35:39
(UTC+00:00)

S-56A Canister/Altair - Pass Details

Date: 19 February 2026
Orbit: 633 x 2484 km, 38.9° (Epoch: 7 March)

Event Time Altitude Azimuth Distance (km) Brightness Sun altitude
Exits shadow 02:22:22 28° 146° (SE) 2,787 10.2 -40.0°
Drops below altitude 10° 02:28:09 10° 127° (SE) 4,373 11.5 -39.2°
Sets 02:32:29 0° 121° (ESE) 5,633 12.2 -38.6°
